Location: La Trinit�
(48.1620°N, 3.4512°W)
Time: 15:33:03
(UTC+00:00)

Spot 2 Rocket - Pass Details

Date: 08 May 2021
Orbit: 758 x 771 km, 98.5° (Epoch: 24 June)

Event Time Altitude Azimuth Distance (km) Brightness Sun altitude
Exits shadow 20:34:10 11° 128° (SE) 2,224 5.2 -8.7°
Maximum altitude 20:38:30 35° 65° (ENE) 1,226 4.4 -9.3°
Drops below altitude 10° 20:43:03 10° 1° (N) 2,301 6.6 -9.9°
Sets 20:45:31 0° 353° (N) 3,230 7.5 -10.2°
